This demonstration page uses our WeatherBlox Daily Observations layout. Learn more.

Left ArrowRight Arrow

Hourly Observations for July 19, 2015

Temp ( °F °C ) Dew Point ( °F °C ) Humidity (%) Winds ( mph kmh ) Pressure ( in mb ) Visibility ( mi km ) Precip ( " mm )
4:53 am 04:53 Clear 72 22.2 70 21.1 94 94 N N/A 29.92 1013 9 14 N/A
5:53 am 05:53 Clear 71 21.7 70 21.1 96 96 N N/A 29.92 1013 7 11 N/A
6:53 am 06:53 Sunny with Mist and Fog 71 21.7 70 21.1 96 96 N N/A 29.92 1013 4 6 N/A
7:53 am 07:53 Sunny 75 23.9 72 22.2 90 90 VRB 3 6 29.94 1014 9 14 N/A
8:53 am 08:53 Mostly Cloudy 78 25.6 73 22.8 85 85 N N/A 29.93 1014 10 16 N/A
9:53 am 09:53 Sunny 80 26.7 74 23.3 82 82 W 3 6 29.94 1014 10 16 N/A
10:53 am 10:53 Sunny 82 27.8 76 24.4 82 82 W 7 11 29.93 1014 10 16 N/A
11:53 am 11:53 Sunny 86 30 78 25.6 77 77 VRB 5 7 29.93 1014 10 16 N/A
12:32 pm 12:32 Partly Cloudy with Thunderstorms 87 30.6 78 25.6 75 75 VRB 6 9 29.91 1013 10 16 N/A
12:43 pm 12:43 Mostly Cloudy with Strong Thunderstorms 85 29.4 79 26.1 82 82 SW 6 9 29.94 1014 2 3 0.04 1.02
12:50 pm 12:50 Mostly Cloudy with Thunderstorms 82 28 81 27 94 94 N N/A 29.91 1013 2 2 0.04 1.02
12:53 pm 12:53 Mostly Cloudy with Thunderstorms 84 28.9 81 27.2 91 91 N N/A 29.93 1014 5 8 0.04 1.02
4:53 pm 16:53 Sunny 89 31.7 72 22.2 57 57 SSW 5 7 29.88 1012 10 16 N/A
5:53 pm 17:53 Sunny 85 29.4 71 21.7 63 63 VRB 6 9 29.86 1011 10 16 N/A
6:53 pm 18:53 Mostly Cloudy with Nearby Thunderstorms 78 25.6 70 21.1 76 76 WNW 18 30 29.90 1013 7 11 0.02 0.51
6:59 pm 18:59 Mostly Cloudy with Nearby Thunderstorms 74 23.3 71 21.7 91 91 NW 16 26 29.91 1013 2 3 0.09 2.29
7:03 pm 19:03 Cloudy with Heavy Rain 74 23.3 71 21.7 91 91 NW 14 22 29.91 1013 1 2 0.15 3.81
7:15 pm 19:15 Cloudy with Heavy Rain 74 23.3 71 21.7 91 91 WNW 7 11 29.91 1013 2 3 0.21 5.33
7:21 pm 19:21 Cloudy with Nearby Thunderstorms 74 23.3 72 22.2 94 94 N N/A 29.88 1012 3 5 0.22 5.59
7:40 pm 19:40 Partly Cloudy 76 24.4 73 22.8 91 91 VRB 3 6 29.88 1012 10 16 0.22 5.59
7:53 pm 19:53 Mostly Sunny 77 25 74 23.3 90 90 S 3 6 29.87 1012 10 16 0.22 5.59
8:53 pm 20:53 Sunny 75 23.9 73 22.8 94 94 N N/A 29.90 1012 10 16 N/A
9:53 pm 21:53 Cloudy 75 23.9 74 23.3 96 96 N N/A 29.91 1013 9 14 N/A
10:53 pm 22:53 Clear with Light Rain 74 23.3 72 22.2 94 94 N N/A 29.91 1013 10 16 N/A
11:53 pm 23:53 Mostly Clear 73 22.8 72 22.2 96 96 E 3 6 29.91 1013 10 16 N/A

Powered by AerisWeather